Weather History for Mammoth, CA

Change the Weather History Date:

Wednesday, January 29, 2014

  Actual Average Record
Temperature  
Mean Temperature 42 °F -  
Max Temperature 60 °F 34 °F 60 °F (2014)
Min Temperature 24 °F 20 °F 3 °F (2011)
Degree Days  
Heating Degree Days 23    
Moisture  
Dew Point 24 °F    
Average Humidity 52    
Maximum Humidity 93    
Minimum Humidity 24    
Precipitation  
Precipitation 0.00 in - - ()
Sea Level Pressure  
Sea Level Pressure 30.15 in    
Wind  
Wind Speed 8 mph (WSW)    
Max Wind Speed 40 mph    
Max Gust Speed 58 mph    
Visibility 10 miles    
Events      
Averages and records for this station are not official NWS values.
T = Trace of Precipitation, MM = Missing Value Source: NWS Daily Summary

Daily Weather History Graph

Daily Weather History Graph

Search for Another Location

Airport:

Trip Planner

Search our weather history database for the weather conditions in past years. The results will help you decide how hot, cold, wet, or windy it might be!

Date:

Astronomy

Jan. 29, 2014 Rise Set
Actual Time 7:01 AM PST 5:16 PM PST
Civil Twilight 6:33 AM PST 5:43 PM PST
Nautical Twilight 6:02 AM PST 6:15 PM PST
Astronomical Twilight 5:31 AM PST 6:46 PM PST
Moon 5:42 AM PST (1/29) 4:21 PM PST (1/29)
Length of Visible Light 11h 10m
Length of Day
10h 14m
Waning Crescent, 2% of the Moon is Illuminated
Jan 29
Waning Crescent
Jan 30
New
Feb 6
First Quarter
Feb 14
Full
Feb 22
Last Quarter

Hourly Weather History & Observations

Time (PST) Temp. Windchill Dew Point Humidity Pressure Visibility Wind Dir Wind Speed Gust Speed Precip Events Conditions
12:15 AM 30.2 °F - 24.8 °F 80% 30.29 in 10.0 mi Calm Calm - N/A   Clear
12:35 AM 30.2 °F - 24.8 °F 80% 30.28 in 10.0 mi Calm Calm - N/A   Clear
12:55 AM 30.2 °F - 24.8 °F 80% 30.27 in 10.0 mi Calm Calm - N/A   Clear
1:15 AM 28.4 °F - 23.0 °F 80% 30.27 in 10.0 mi Calm Calm - N/A   Clear
1:35 AM 28.4 °F - 24.8 °F 86% 30.28 in 10.0 mi Calm Calm - N/A   Clear
1:55 AM 28.4 °F 24.6 °F 23.0 °F 80% 30.28 in 10.0 mi NNW 3.5 mph - N/A   Clear
2:15 AM 28.4 °F 24.6 °F 23.0 °F 80% 30.27 in 10.0 mi NW 3.5 mph - N/A   Clear
2:35 AM 28.4 °F - 24.8 °F 86% 30.28 in 10.0 mi Calm Calm - N/A   Clear
2:55 AM 26.6 °F 22.6 °F 23.0 °F 86% 30.27 in 10.0 mi NNE 3.5 mph - N/A   Clear
3:15 AM 28.4 °F - 23.0 °F 80% 30.28 in 10.0 mi Calm Calm - N/A   Clear
3:35 AM 24.8 °F - 21.2 °F 86% 30.28 in 10.0 mi Calm Calm - N/A   Clear
3:55 AM 26.6 °F - 21.2 °F 80% 30.27 in 10.0 mi Calm Calm - N/A   Clear
4:15 AM 24.8 °F - 23.0 °F 93% 30.28 in 10.0 mi Calm Calm - N/A   Clear
4:35 AM 26.6 °F - 23.0 °F 86% 30.28 in 10.0 mi Calm Calm - N/A   Scattered Clouds
4:55 AM 26.6 °F - 23.0 °F 86% 30.27 in 10.0 mi Calm Calm - N/A   Scattered Clouds
5:15 AM 30.2 °F 24.3 °F 26.6 °F 86% 30.26 in 10.0 mi SE 5.8 mph - N/A   Clear
5:35 AM 28.4 °F - 24.8 °F 86% 30.26 in 10.0 mi Calm Calm - N/A   Clear
5:55 AM 26.6 °F - 23.0 °F 86% 30.26 in 10.0 mi Calm Calm - N/A   Scattered Clouds
6:15 AM 24.8 °F 20.5 °F 23.0 °F 93% 30.26 in 10.0 mi West 3.5 mph - N/A   Scattered Clouds
6:35 AM 24.8 °F 20.5 °F 21.2 °F 86% 30.26 in 10.0 mi WSW 3.5 mph - N/A   Scattered Clouds
6:55 AM 26.6 °F - 23.0 °F 86% 30.26 in 10.0 mi Calm Calm - N/A   Mostly Cloudy
7:15 AM 28.4 °F 23.3 °F 24.8 °F 86% 30.26 in 10.0 mi SE 4.6 mph - N/A   Overcast
7:35 AM 30.2 °F - 24.8 °F 80% 30.26 in 10.0 mi Calm Calm - N/A   Overcast
7:55 AM 30.2 °F - 24.8 °F 80% 30.26 in 10.0 mi Calm Calm - N/A   Scattered Clouds
8:15 AM 32.0 °F - 24.8 °F 75% 30.25 in 10.0 mi Calm Calm - N/A   Clear
8:35 AM 35.6 °F - 28.4 °F 75% 30.24 in 10.0 mi Calm Calm - N/A   Clear
8:55 AM 39.2 °F - 28.4 °F 65% 30.24 in 10.0 mi Calm Calm - N/A   Clear
9:15 AM 41.0 °F - 28.4 °F 61% 30.24 in 10.0 mi Calm Calm - N/A   Clear
9:35 AM 46.4 °F - 30.2 °F 53% 30.23 in 10.0 mi Calm Calm - N/A   Clear
9:55 AM 48.2 °F - 30.2 °F 50% 30.23 in 10.0 mi SE 4.6 mph - N/A   Scattered Clouds
10:15 AM 51.8 °F - 30.2 °F 44% 30.23 in 10.0 mi Calm Calm - N/A   Mostly Cloudy
10:35 AM 53.6 °F - 30.2 °F 41% 30.23 in 10.0 mi SE 9.2 mph - N/A   Mostly Cloudy
10:55 AM 55.4 °F - 28.4 °F 36% 30.22 in 10.0 mi WSW 12.7 mph 20.7 mph N/A   Scattered Clouds
11:15 AM 59.0 °F - 30.2 °F 34% 30.20 in 10.0 mi West 11.5 mph 21.9 mph N/A   Clear
11:35 AM 60.8 °F - 30.2 °F 31% 30.19 in 10.0 mi West 19.6 mph 24.2 mph N/A   Scattered Clouds
11:55 AM 59.0 °F - 32.0 °F 36% 30.18 in 10.0 mi West 20.7 mph 29.9 mph N/A   Overcast
12:15 PM 59.0 °F - 30.2 °F 34% 30.16 in 10.0 mi WSW 17.3 mph 31.1 mph N/A   Mostly Cloudy
12:35 PM 59.0 °F - 30.2 °F 34% 30.14 in 10.0 mi WSW 13.8 mph 31.1 mph N/A   Scattered Clouds
12:55 PM 60.8 °F - 30.2 °F 31% 30.13 in 10.0 mi WSW 15.0 mph 31.1 mph N/A   Clear
1:15 PM 60.8 °F - 24.8 °F 25% 30.12 in 10.0 mi West 24.2 mph 38.0 mph N/A   Clear
1:35 PM 60.8 °F - 26.6 °F 27% 30.11 in 10.0 mi WSW 24.2 mph 35.7 mph N/A   Clear
1:55 PM 60.8 °F - 26.6 °F 27% 30.10 in 10.0 mi WSW 16.1 mph 38.0 mph N/A   Clear
2:15 PM 60.8 °F - 26.6 °F 27% 30.09 in 10.0 mi WSW 18.4 mph 31.1 mph N/A   Clear
2:35 PM 60.8 °F - 26.6 °F 27% 30.09 in 10.0 mi SW 24.2 mph 41.4 mph N/A   Scattered Clouds
2:55 PM 59.0 °F - 26.6 °F 29% 30.09 in 10.0 mi WSW 19.6 mph 39.1 mph N/A   Overcast
3:15 PM 59.0 °F - 26.6 °F 29% 30.08 in 10.0 mi West 18.4 mph 29.9 mph N/A   Overcast
3:35 PM 59.0 °F - 24.8 °F 27% 30.07 in 10.0 mi WSW 25.3 mph 39.1 mph N/A   Mostly Cloudy
3:55 PM 57.2 °F - 23.0 °F 27% 30.07 in 10.0 mi WSW 19.6 mph 34.5 mph N/A   Mostly Cloudy
4:15 PM 57.2 °F - 21.2 °F 25% 30.06 in 10.0 mi WSW 17.3 mph 34.5 mph N/A   Mostly Cloudy
4:35 PM 55.4 °F - 19.4 °F 25% 30.06 in 10.0 mi West 19.6 mph 38.0 mph N/A   Scattered Clouds
4:55 PM 55.4 °F - 19.4 °F 25% 30.06 in 10.0 mi WSW 25.3 mph 42.6 mph N/A   Clear
5:15 PM 53.6 °F - 19.4 °F 26% 30.05 in 10.0 mi West 23.0 mph 40.3 mph N/A   Clear
5:35 PM 53.6 °F - 17.6 °F 24% 30.04 in 10.0 mi WSW 26.5 mph 39.1 mph N/A   Clear
5:55 PM 51.8 °F - 17.6 °F 26% 30.04 in 10.0 mi WSW 25.3 mph 41.4 mph N/A   Clear
6:15 PM 51.8 °F - 17.6 °F 26% 30.04 in 10.0 mi WSW 17.3 mph 39.1 mph N/A   Clear
6:35 PM 51.8 °F - 17.6 °F 26% 30.04 in 10.0 mi WSW 23.0 mph 40.3 mph N/A   Clear
6:55 PM 51.8 °F - 19.4 °F 28% 30.03 in 10.0 mi WSW 24.2 mph 42.6 mph N/A   Clear
7:15 PM 51.8 °F - 21.2 °F 30% 30.04 in 10.0 mi WSW 31.1 mph 42.6 mph N/A   Clear
7:35 PM 50.0 °F - 21.2 °F 32% 30.01 in 7.0 mi SW 27.6 mph 38.0 mph N/A   Clear
7:55 PM 50.0 °F - 23.0 °F 35% 30.02 in 10.0 mi SW 26.5 mph 50.6 mph N/A   Clear
8:15 PM 50.0 °F - 23.0 °F 35% 30.01 in 10.0 mi SW 40.3 mph 55.2 mph N/A   Scattered Clouds
8:35 PM 50.0 °F - 24.8 °F 37% 30.01 in 10.0 mi WSW 29.9 mph 47.2 mph N/A   Scattered Clouds
8:55 PM 48.2 °F - 24.8 °F 40% 30.00 in 10.0 mi WSW 29.9 mph 57.5 mph N/A   Scattered Clouds
9:35 PM 50.0 °F - 24.8 °F 37% 29.98 in 10.0 mi SW 32.2 mph 49.5 mph N/A   Clear
9:55 PM 48.2 °F - 24.8 °F 40% 29.98 in 10.0 mi WSW 29.9 mph 47.2 mph N/A   Clear
10:15 PM 50.0 °F - 23.0 °F 35% 29.97 in 10.0 mi SW 33.4 mph 49.5 mph N/A   Clear
10:35 PM 50.0 °F - 21.2 °F 32% 29.96 in 10.0 mi WSW 33.4 mph 46.0 mph N/A   Clear
10:55 PM 50.0 °F - 21.2 °F 32% 29.95 in 10.0 mi SW 36.8 mph 48.3 mph N/A   Clear
11:15 PM 50.0 °F - 21.2 °F 32% 29.96 in 10.0 mi SW 35.7 mph 51.8 mph N/A   Clear
11:35 PM 48.2 °F - 21.2 °F 34% 29.96 in 10.0 mi WSW 26.5 mph 46.0 mph N/A   Scattered Clouds
11:55 PM 48.2 °F - 21.2 °F 34% 29.95 in 10.0 mi WSW 31.1 mph 44.9 mph N/A   Scattered Clouds